DW5479 Weather Reports


time (UTC)temp
F
wind
direction
speed
knots
gust
knots
rain 1hr
in
rain 24hr
in
rain mn
in
humidity
%
barometer
mb
20221207230504 76 159 1.7 5.2 0.00 0.00 0.00 67 1018.4
20221207230002 77 183 2.6 7.8 0.00 0.00 0.00 67 1018.4
20221207225502 77 155 3.5 8.7 0.00 0.00 0.00 66 1018.4
20221207225003 77 124 2.6 8.7 0.00 0.00 0.00 66 1018.4
20221207224502 77 153 4.3 7.0 0.00 0.00 0.00 65 1018.4
20221207224001 77 155 4.3 7.0 0.00 0.00 0.00 65 1018.4
20221207223501 78 147 4.3 10.4 0.00 0.00 0.00 64 1018.4
20221207223001 78 155 4.3 7.8 0.00 0.00 0.00 63 1018.4
20221207222501 78 178 2.6 7.8 0.00 0.00 0.00 64 1018.4
20221207222100 78 158 2.6 7.8 0.00 0.00 0.00 64 1018.3
20221207221603 78 172 4.3 8.7 0.00 0.00 0.00 63 1018.3
20221207221100 78 150 4.3 9.6 0.00 0.00 0.00 63 1018.4
20221207220600 78 200 5.2 9.6 0.00 0.00 0.00 63 1018.4
20221207220109 78 188 5.2 9.6 0.00 0.00 0.00 63 1018.4
20221207215559 78 151 5.2 11.3 0.00 0.00 0.00 63 1018.4
20221207215101 78 172 4.3 11.3 0.00 0.00 0.00 63 1018.3
20221207214600 78 250 6.1 11.3 0.00 0.00 0.00 62 1018.3
20221207214103 78 207 5.2 8.7 0.00 0.00 0.00 63 1018.4
20221207213559 78 144 5.2 9.6 0.00 0.00 0.00 65 1018.4
20221207213058 78 169 6.1 12.2 0.00 0.00 0.00 65 1018.4
20221207212558 78 155 7.8 12.2 0.00 0.00 0.00 64 1018.5
20221207212057 78 185 7.0 15.6 0.00 0.00 0.00 64 1018.5
20221207211614 78 139 7.0 15.6 0.00 0.00 0.00 64 1018.4
20221207211059 78 162 5.2 13.0 0.00 0.00 0.00 66 1018.4
20221207210557 78 144 7.0 11.3 0.00 0.00 0.00 65 1018.5
20221207210057 78 160 6.1 15.6 0.00 0.00 0.00 65 1018.4
20221207205556 78 169 9.6 15.6 0.00 0.00 0.00 63 1018.5
20221207205057 78 160 7.8 12.2 0.00 0.00 0.00 64 1018.5
20221207204556 78 172 6.1 11.3 0.00 0.00 0.00 64 1018.5
20221207204057 78 212 6.1 10.4 0.00 0.00 0.00 65 1018.5
20221207203559 78 148 6.1 10.4 0.00 0.00 0.00 66 1018.6
20221207203056 78 189 6.1 11.3 0.00 0.00 0.00 65 1018.6
20221207202600 78 168 7.0 11.3 0.00 0.00 0.00 65 1018.6
20221207202054 78 190 4.3 13.0 0.00 0.00 0.00 65 1018.6
20221207201559 78 188 7.8 14.8 0.00 0.00 0.00 64 1018.6
20221207201053 78 214 7.8 13.0 0.00 0.00 0.00 65 1018.7
20221207200553 78 184 6.1 13.9 0.00 0.00 0.00 65 1018.6
20221207200100 78 158 5.2 13.0 0.00 0.00 0.00 67 1018.7
20221207195551 78 176 5.2 12.2 0.00 0.00 0.00 68 1018.7
20221207195052 77 123 6.1 12.2 0.00 0.00 0.00 68 1018.8
20221207194551 77 164 5.2 12.2 0.00 0.00 0.00 67 1018.9
20221207194050 77 169 6.1 12.2 0.00 0.00 0.00 68 1018.9
20221207193549 77 157 6.1 12.2 0.00 0.00 0.00 70 1019.0
20221207193058 77 148 7.0 11.3 0.00 0.00 0.00 69 1019.0
20221207192549 77 162 7.0 15.6 0.00 0.00 0.00 69 1019.1
20221207192048 77 169 8.7 15.6 0.00 0.00 0.00 69 1019.2
20221207191553 77 162 4.3 13.9 0.00 0.00 0.00 72 1019.3
20221207191047 76 166 4.3 10.4 0.00 0.00 0.00 72 1019.4
20221207190550 76 194 5.2 12.2 0.00 0.00 0.00 72 1019.5
20221207190047 77 229 7.0 13.0 0.00 0.00 0.00 72 1019.5
20221207185550 77 187 6.1 12.2 0.00 0.00 0.00 73 1019.6
20221207185049 76 159 7.0 12.2 0.00 0.00 0.00 74 1019.6
20221207184546 76 181 6.1 11.3 0.00 0.00 0.00 74 1019.7
20221207184045 76 144 6.1 13.0 0.00 0.00 0.00 73 1019.8
20221207183546 76 169 5.2 13.0 0.00 0.00 0.00 72 1019.8
20221207183053 76 214 6.1 11.3 0.00 0.00 0.00 73 1019.9
20221207182549 76 175 6.1 11.3 0.00 0.00 0.00 73 1019.9
20221207182044 76 167 4.3 13.9 0.00 0.00 0.00 74 1020.1
20221207181550 76 169 7.8 13.9 0.00 0.00 0.00 74 1020.1
20221207181045 76 183 7.0 11.3 0.00 0.00 0.00 75 1020.3
20221207180542 75 150 5.2 11.3 0.00 0.00 0.00 75 1020.3
20221207180043 75 169 5.2 11.3 0.00 0.00 0.00 74 1020.4
20221207175542 76 155 5.2 8.7 0.00 0.00 0.00 74 1020.5
20221207175042 76 190 5.2 8.7 0.00 0.00 0.00 74 1020.6
20221207174545 76 162 5.2 9.6 0.00 0.00 0.00 73 1020.8
20221207174041 76 209 6.1 10.4 0.00 0.00 0.00 73 1020.8
20221207173541 76 169 4.3 12.2 0.00 0.00 0.00 74 1020.9
20221207173041 76 197 5.2 12.2 0.00 0.00 0.00 72 1020.9
20221207172540 77 163 7.8 11.3 0.00 0.00 0.00 73 1021.0
20221207172039 76 224 6.1 11.3 0.00 0.00 0.00 74 1021.0
20221207171539 76 210 5.2 9.6 0.00 0.00 0.00 74 1021.0
20221207171038 76 221 4.3 9.6 0.00 0.00 0.00 73 1021.1
20221207170537 76 179 4.3 9.6 0.00 0.00 0.00 74 1021.1
20221207170038 76 155 6.1 11.3 0.00 0.00 0.00 74 1021.2
20221207165538 75 177 5.2 11.3 0.00 0.00 0.00 76 1021.3
20221207165033 75 180 5.2 12.2 0.00 0.00 0.00 77 1021.3
20221207164537 75 136 6.1 12.2 0.00 0.00 0.00 77 1021.4
20221207164031 74 195 6.1 12.2 0.00 0.00 0.00 79 1021.3
20221207163534 74 160 2.6 7.8 0.00 0.00 0.00 79 1021.3
20221207163033 74 198 3.5 7.8 0.00 0.00 0.00 81 1021.3
20221207162529 73 147 3.5 9.6 0.00 0.00 0.00 82 1021.4
20221207162026 73 150 4.3 10.4 0.00 0.00 0.00 82 1021.4
20221207161525 72 184 3.5 7.8 0.00 0.00 0.00 84 1021.4
20221207161025 72 236 3.5 10.4 0.00 0.00 0.00 84 1021.4
20221207160525 72 229 5.2 10.4 0.00 0.00 0.00 83 1021.4
20221207160024 72 159 5.2 14.8 0.00 0.00 0.00 83 1021.4
20221207155523 72 159 6.1 11.3 0.00 0.00 0.00 84 1021.4
20221207155024 72 203 4.3 13.9 0.00 0.00 0.00 85 1021.3
20221207154520 71 171 6.1 13.9 0.00 0.00 0.00 85 1021.3
20221207154021 71 160 6.1 11.3 0.00 0.00 0.00 86 1021.3
20221207153518 70 193 4.3 9.6 0.00 0.00 0.00 87 1021.3
20221207153017 70 211 4.3 9.6 0.00 0.00 0.00 88 1021.3
20221207152517 69 148 4.3 8.7 0.00 0.00 0.00 88 1021.3
20221207152013 69 157 4.3 7.8 0.00 0.00 0.00 88 1021.2
20221207151518 69 151 2.6 7.8 0.00 0.00 0.00 88 1021.1
20221207151014 69 165 4.3 7.8 0.00 0.00 0.00 88 1021.0
20221207150511 68 167 4.3 7.8 0.00 0.00 0.00 88 1021.0
20221207150027 68 145 3.5 7.8 0.00 0.00 0.00 88 1020.9
20221207145508 68 182 3.5 7.8 0.00 0.00 0.00 88 1020.9
20221207145008 68 163 4.3 8.7 0.00 0.00 0.00 88 1020.9
20221207144507 68 158 4.3 8.7 0.00 0.00 0.00 88 1020.8
20221207144007 68 146 3.5 7.8 0.00 0.00 0.00 88 1020.8
20221207143505 68 167 5.2 7.8 0.00 0.00 0.00 88 1020.8
20221207143005 68 153 4.3 7.0 0.00 0.00 0.00 88 1020.7
20221207142504 68 155 3.5 8.7 0.00 0.00 0.00 88 1020.6
20221207142005 68 186 3.5 8.7 0.00 0.00 0.00 88 1020.6
20221207141503 68 130 3.5 7.0 0.00 0.00 0.00 88 1020.6
20221207141002 68 161 4.3 7.0 0.00 0.00 0.00 88 1020.5
20221207140501 68 155 3.5 6.1 0.00 0.00 0.00 88 1020.5
20221207140001 68 195 3.5 7.0 0.00 0.00 0.00 88 1020.5
20221207135501 68 167 3.5 7.0 0.00 0.00 0.00 88 1020.5
20221207135100 68 165 3.5 6.1 0.00 0.00 0.00 87 1020.5
20221207134600 68 144 2.6 6.1 0.00 0.00 0.00 87 1020.4
20221207134059 68 145 2.6 6.1 0.00 0.00 0.00 87 1020.4
20221207133558 67 195 2.6 6.1 0.00 0.00 0.00 87 1020.2
20221207133103 67 158 2.6 6.1 0.00 0.00 0.00 87 1020.1
20221207132557 67 162 2.6 6.1 0.00 0.00 0.00 87 1020.0
20221207132058 67 167 2.6 6.1 0.00 0.00 0.00 87 1020.0
20221207131557 67 154 2.6 6.1 0.00 0.00 0.00 87 1019.9
20221207131054 67 159 3.5 5.2 0.00 0.00 0.00 87 1019.8
20221207130553 67 173 2.6 5.2 0.00 0.00 0.00 87 1019.8
20221207130055 67 153 2.6 4.3 0.00 0.00 0.00 87 1019.8
20221207125552 67 184 2.6 5.2 0.00 0.00 0.00 87 1019.8
20221207125052 67 186 2.6 5.2 0.00 0.00 0.00 87 1019.7
20221207124551 67 156 2.6 6.1 0.00 0.00 0.00 87 1019.7
20221207124051 67 170 2.6 6.1 0.00 0.00 0.00 88 1019.5
20221207123550 67 158 2.6 5.2 0.00 0.00 0.00 88 1019.5
20221207123054 67 157 2.6 5.2 0.00 0.00 0.00 88 1019.4
20221207122548 67 142 2.6 7.8 0.00 0.00 0.00 88 1019.4
20221207122048 68 160 3.5 7.8 0.00 0.00 0.00 88 1019.3
20221207121547 68 217 2.6 7.0 0.00 0.00 0.00 88 1019.2
20221207121047 68 151 4.3 7.8 0.00 0.00 0.00 88 1019.1
20221207120547 68 154 4.3 7.8 0.00 0.00 0.00 88 1019.1
20221207120045 68 153 2.6 8.7 0.00 0.00 0.00 88 1019.0
20221207115549 68 163 4.3 8.7 0.00 0.00 0.00 88 1018.9
20221207115045 68 160 3.5 6.1 0.00 0.00 0.00 88 1018.9
20221207114546 68 145 3.5 6.1 0.00 0.00 0.00 88 1018.8
20221207114044 67 170 3.5 6.1 0.00 0.00 0.00 88 1018.8
20221207113543 67 161 3.5 7.8 0.00 0.00 0.00 88 1018.6
20221207113043 67 149 3.5 6.1 0.00 0.00 0.00 88 1018.6
20221207112542 67 134 2.6 8.7 0.00 0.00 0.00 88 1018.6
20221207112041 67 140 2.6 7.0 0.00 0.00 0.00 88 1018.5
20221207111540 67 150 2.6 7.8 0.00 0.00 0.00 88 1018.4
20221207111040 67 169 3.5 7.8 0.00 0.00 0.00 88 1018.2
20221207110540 67 155 4.3 7.8 0.00 0.00 0.00 88 1018.2
20221207110042 67 179 3.5 7.8 0.00 0.00 0.00 88 1018.1
20221207105542 67 150 4.3 7.8 0.00 0.00 0.00 88 1018.2
20221207105039 67 167 2.6 7.0 0.00 0.00 0.00 88 1018.2
20221207104539 68 188 3.5 7.0 0.00 0.00 0.00 88 1018.2
20221207104042 68 156 2.6 7.0 0.00 0.00 0.00 88 1018.3
20221207103538 68 152 2.6 8.7 0.00 0.00 0.00 88 1018.3
20221207103052 68 174 5.2 8.7 0.00 0.00 0.00 88 1018.3
20221207102540 68 158 3.5 7.8 0.00 0.00 0.00 88 1018.3
20221207102037 68 142 3.5 7.0 0.00 0.00 0.00 88 1018.4
20221207101545 68 150 2.6 7.0 0.00 0.00 0.00 88 1018.4
20221207101036 68 154 2.6 7.0 0.00 0.00 0.00 88 1018.3
20221207100536 68 158 3.5 7.0 0.00 0.00 0.00 88 1018.3
20221207100136 68 147 3.5 6.1 0.00 0.00 0.00 88 1018.3
20221207095536 68 136 1.7 5.2 0.00 0.00 0.00 88 1018.3
20221207095038 68 167 2.6 5.2 0.00 0.00 0.00 88 1018.3
20221207094551 67 147 2.6 6.1 0.00 0.00 0.00 88 1018.3
20221207094035 67 147 3.5 6.1 0.00 0.00 0.00 88 1018.4
20221207093536 67 157 3.5 6.1 0.00 0.00 0.00 88 1018.3
20221207093041 67 127 2.6 7.8 0.00 0.00 0.00 88 1018.3
20221207092535 67 141 3.5 7.8 0.00 0.00 0.00 88 1018.3
20221207092034 67 141 1.7 7.0 0.00 0.00 0.00 88 1018.4
20221207091533 67 155 4.3 7.0 0.00 0.00 0.00 88 1018.3
20221207091033 67 163 2.6 8.7 0.00 0.00 0.00 88 1018.3
20221207090534 67 158 4.3 8.7 0.00 0.00 0.00 88 1018.3
20221207090034 67 159 1.7 6.1 0.00 0.00 0.00 88 1018.3
20221207085534 67 150 2.6 6.1 0.00 0.00 0.00 88 1018.3
20221207085032 67 176 2.6 6.1 0.00 0.00 0.00 88 1018.2
20221207084538 67 149 3.5 7.8 0.00 0.00 0.00 88 1018.2
20221207084032 67 162 3.5 7.8 0.00 0.00 0.00 88 1018.2
20221207083531 67 158 2.6 4.3 0.00 0.00 0.00 88 1018.2
20221207083036 67 139 2.6 7.0 0.00 0.00 0.00 88 1018.1
20221207082528 67 158 2.6 7.0 0.00 0.00 0.00 88 1018.0
20221207082029 67 150 3.5 6.1 0.00 0.00 0.00 88 1018.0
20221207081538 67 190 2.6 6.1 0.00 0.00 0.00 88 1017.9
20221207081027 67 166 2.6 6.1 0.00 0.00 0.00 88 1017.9
20221207080527 67 166 3.5 6.1 0.00 0.00 0.00 88 1017.9
20221207080027 67 143 3.5 6.1 0.00 0.00 0.00 88 1017.9
20221207075528 67 160 3.5 6.1 0.00 0.00 0.00 88 1017.8
20221207075025 67 151 1.7 6.1 0.00 0.00 0.00 88 1017.7
20221207074525 67 160 3.5 5.2 0.00 0.00 0.00 88 1017.7
20221207074027 67 155 2.6 6.1 0.00 0.00 0.00 88 1017.8
20221207073525 67 163 3.5 6.1 0.00 0.00 0.00 88 1017.7
20221207073024 67 155 3.5 6.1 0.00 0.00 0.00 88 1017.6
20221207072523 67 155 2.6 6.1 0.00 0.00 0.00 88 1017.6
20221207072022 67 169 2.6 5.2 0.00 0.00 0.00 88 1017.6
20221207071521 67 163 2.6 5.2 0.00 0.00 0.00 88 1017.6
20221207071022 67 142 2.6 6.1 0.00 0.00 0.00 88 1017.7
20221207070521 67 159 2.6 7.0 0.00 0.00 0.00 88 1017.6
20221207070024 67 157 3.5 7.0 0.00 0.00 0.00 88 1017.6
20221207065520 67 169 3.5 7.0 0.00 0.00 0.00 88 1017.7
20221207065021 68 148 3.5 7.0 0.00 0.00 0.00 88 1017.7
20221207064528 68 162 4.3 8.7 0.00 0.00 0.00 88 1017.6
20221207064019 68 147 3.5 8.7 0.00 0.00 0.00 88 1017.6
20221207063519 68 165 4.3 8.7 0.00 0.00 0.00 88 1017.6
20221207063021 68 170 4.3 7.8 0.00 0.00 0.00 88 1017.7
20221207062518 68 146 3.5 7.8 0.00 0.00 0.00 88 1017.6
20221207062016 68 176 4.3 9.6 0.00 0.00 0.00 88 1017.5
20221207061516 68 162 5.2 9.6 0.00 0.00 0.00 88 1017.4
20221207061019 68 192 5.2 8.7 0.00 0.00 0.00 88 1017.4
20221207060514 68 155 5.2 8.7 0.00 0.00 0.00 88 1017.4
20221207060024 68 161 3.5 8.7 0.00 0.00 0.00 87 1017.3
20221207055510 68 187 4.3 11.3 0.00 0.00 0.00 87 1017.3
20221207055011 68 177 6.1 11.3 0.00 0.00 0.00 87 1017.2
20221207054510 69 141 4.3 10.4 0.00 0.00 0.00 87 1017.1
20221207054009 69 148 5.2 10.4 0.00 0.00 0.00 87 1017.1
20221207053509 69 165 5.2 10.4 0.00 0.00 0.00 87 1017.0
20221207053008 69 150 6.1 11.3 0.00 0.00 0.00 87 1017.0
20221207052507 69 160 6.1 11.3 0.00 0.00 0.00 87 1017.0
20221207052006 69 150 4.3 9.6 0.00 0.00 0.00 87 1016.9
20221207051507 69 163 5.2 8.7 0.00 0.00 0.00 86 1016.9
20221207051006 69 143 6.1 10.4 0.00 0.00 0.00 86 1016.8
20221207050506 69 155 5.2 8.7 0.00 0.00 0.00 86 1016.8
20221207050005 69 184 5.2 8.7 0.00 0.00 0.00 86 1016.7
20221207045505 70 175 5.2 8.7 0.00 0.00 0.00 86 1016.7
20221207045005 70 129 4.3 8.7 0.00 0.00 0.00 86 1016.6
20221207044505 70 164 4.3 7.8 0.00 0.00 0.00 86 1016.7
20221207044004 70 165 5.2 10.4 0.00 0.00 0.00 86 1016.6
20221207043503 70 165 5.2 12.2 0.00 0.00 0.00 86 1016.5
20221207043001 70 163 5.2 10.4 0.00 0.00 0.00 86 1016.3
20221207042502 70 156 6.1 9.6 0.00 0.00 0.00 86 1016.2
20221207042100 70 156 6.1 9.6 0.00 0.00 0.00 86 1016.2
20221207041602 70 154 5.2 9.6 0.00 0.00 0.00 86 1016.2
20221207041501 70 142 5.2 9.6 0.00 0.00 0.00 86 1016.2
20221207041101 70 160 4.3 10.4 0.00 0.00 0.00 86 1016.3
20221207040600 70 153 6.1 10.4 0.00 0.00 0.00 86 1016.3
20221207040100 70 153 4.3 10.4 0.00 0.00 0.00 86 1016.2
20221207035600 70 155 5.2 10.4 0.00 0.00 0.00 86 1016.2
20221207035059 70 165 5.2 8.7 0.00 0.00 0.00 86 1016.2
20221207034604 70 138 3.5 9.6 0.00 0.00 0.00 86 1016.2
20221207034058 70 153 5.2 9.6 0.00 0.00 0.00 86 1016.1
20221207033557 70 129 4.3 9.6 0.00 0.00 0.00 86 1016.0
20221207033058 70 163 4.3 9.6 0.00 0.00 0.00 86 1015.9
20221207032556 70 131 5.2 8.7 0.00 0.00 0.00 86 1015.8
20221207032055 70 134 5.2 7.0 0.00 0.00 0.00 86 1015.7
20221207031559 70 134 5.2 9.6 0.00 0.00 0.00 86 1015.6
20221207031054 70 134 4.3 9.6 0.00 0.00 0.00 86 1015.5
20221207030553 71 138 4.3 8.7 0.00 0.00 0.00 86 1015.4
20221207030052 71 134 4.3 8.7 0.00 0.00 0.00 86 1015.3
20221207025552 71 134 4.3 8.7 0.00 0.00 0.00 86 1015.2
20221207025052 71 150 5.2 10.4 0.00 0.00 0.00 86 1015.1
20221207024550 71 135 4.3 9.6 0.00 0.00 0.00 86 1015.1
20221207024050 71 168 4.3 11.3 0.00 0.00 0.00 86 1015.1
20221207023550 71 159 6.1 11.3 0.00 0.00 0.00 86 1015.0
20221207023058 71 132 5.2 9.6 0.00 0.00 0.00 86 1015.0
20221207022549 71 136 4.3 8.7 0.00 0.00 0.00 86 1015.0
20221207022049 71 136 4.3 10.4 0.00 0.00 0.00 86 1014.9
20221207021549 72 140 4.3 10.4 0.00 0.00 0.00 86 1014.9
20221207021148 72 165 5.2 10.4 0.00 0.00 0.00 86 1014.8
20221207020548 72 134 4.3 7.0 0.00 0.00 0.00 86 1014.7
20221207020048 72 146 2.6 7.0 0.00 0.00 0.00 86 1014.6
20221207015548 72 140 3.5 7.8 0.00 0.00 0.00 86 1014.5
20221207015048 72 151 4.3 7.8 0.00 0.00 0.00 85 1014.4
20221207014556 72 141 5.2 11.3 0.00 0.00 0.00 85 1014.3
20221207014050 73 139 6.1 11.3 0.00 0.00 0.00 85 1014.3
20221207013548 73 169 5.2 10.4 0.00 0.00 0.00 85 1014.2
20221207013051 73 146 5.2 9.6 0.00 0.00 0.00 84 1014.1
20221207012550 73 134 3.5 8.7 0.00 0.00 0.00 84 1014.2
20221207012046 73 97 3.5 7.8 0.00 0.00 0.00 84 1014.2
20221207011546 73 122 3.5 8.7 0.00 0.00 0.00 84 1014.2
20221207011046 74 139 4.3 7.0 0.00 0.00 0.00 83 1014.2
20221207010545 74 142 3.5 8.7 0.00 0.00 0.00 83 1014.2
20221207010047 74 141 3.5 8.7 0.00 0.00 0.00 83 1014.2
20221207005545 74 140 4.3 7.8 0.00 0.00 0.00 82 1014.1
20221207005044 74 133 3.5 7.8 0.00 0.00 0.00 81 1014.0
20221207004553 74 158 4.3 9.6 0.00 0.00 0.00 81 1013.8
20221207004045 74 140 4.3 7.8 0.00 0.00 0.00 80 1013.6
20221207003544 74 153 1.7 3.5 0.00 0.00 0.00 80 1013.7
20221207003044 74 141 0.9 3.5 0.00 0.00 0.00 79 1013.7
20221207002545 74 139 1.7 2.6 0.00 0.00 0.00 79 1013.6
20221207002044 74 131 0.9 1.7 0.00 0.00 0.00 79 1013.6
20221207001548 74 131 0.9 1.7 0.00 0.00 0.00 78 1013.6
20221207001043 75 131 0.9 2.6 0.00 0.00 0.00 78 1013.5
20221207000543 75 131 0.9 2.6 0.00 0.00 0.00 78 1013.5
20221207000146 75 139 1.7 2.6 0.00 0.00 0.00 78 1013.4
20221206235545 75 157 1.7 2.6 0.00 0.00 0.00 78 1013.4
20221206235043 75 139 0.9 4.3 0.00 0.00 0.00 77 1013.4
20221206234542 75 149 0.9 4.3 0.00 0.00 0.00 77 1013.2
20221206234043 75 124 1.7 3.5 0.00 0.00 0.00 77 1013.1
20221206233542 75 142 1.7 3.5 0.00 0.00 0.00 77 1013.1
20221206233049 76 146 1.7 4.3 0.00 0.00 0.00 76 1013.1
20221206232542 76 127 2.6 4.3 0.00 0.00 0.00 76 1013.0
20221206232041 76 139 1.7 4.3 0.00 0.00 0.00 76 1013.1
20221206231541 76 150 0.9 2.6 0.00 0.00 0.00 76 1013.1
20221206231041 76 144 0.9 5.2 0.00 0.00 0.00 75 1013.1